Flag for U.S.A. Weather past 2 weeks in Paradise, Nevada, U.S.A.

Now
91 °F

Passing clouds.


Feels Like: 88 °F
Forecast: 73 / 97 °F
Wind: 15 mph from South

Location: McCarran International Airport

Current Time: Sep 1, 2015 at 10:34:44 PM

Latest Report: Sep 1, 2015 at 9:56 PM


Visibility: 10 mi

Pressure: 29.75 "Hg (27.69 "Hg at 643m altitude)

Humidity: 26%

Dew point: 52 °F

Location of ParadiseLocation

Historic Weather in Paradise — Graph

°F

Paradise temperature yesterday

Maximum temperature yesterday: 102 °F (at 3:56 PM)
Minimum temperature yesterday: 81 °F (at 4:56 AM)
Average temperature yesterday: 91 °F

Past Weeks' High & Low Weather Summary

 TemperatureHumidityPressure
High108 °F (Aug 18, 2:56 PM)48% (Aug 26, 10:56 AM)29.99 "Hg (Aug 26, 10:56 AM)
Low81 °F (Aug 27, 6:56 AM)5% (Aug 18, 1:56 PM)29.56 "Hg (Aug 20, 5:56 PM)
Average94 °F19%29.74 "Hg
* Reported Aug 17 8:56 PM — Sep 1 8:56 PM, Paradise, Weather by CustomWeather, © 2015

Note: Actual official high and low records may vary slightly from our data, if they occured in-between our weather recording intervals... More about our weather records

Advertising

Paradise weather history for previous 24 hours

 ConditionsComfort  
Time TempWeatherWind HumidityBarometerVisibility
8:56 PM
Tue, Sep 1
93 °FPassing clouds.10 mph22%29.73 "Hg10 mi
7:56 PM94 °FScattered clouds.7 mph22%29.71 "Hg10 mi
6:56 PM95 °FScattered clouds.10 mph21%29.69 "Hg10 mi
5:56 PM96 °FScattered clouds.10 mph22%29.69 "Hg10 mi
4:56 PM98 °FScattered clouds.9 mph17%29.69 "Hg10 mi
3:56 PM98 °FScattered clouds.10 mph19%29.70 "Hg10 mi
1:56 PM96 °FScattered clouds.5 mph22%29.74 "Hg10 mi
12:56 PM97 °FPassing clouds.12 mph21%29.76 "Hg10 mi
11:56 AM94 °FPassing clouds.6 mph22%29.78 "Hg10 mi
10:56 AM92 °FPassing clouds.10 mph23%29.81 "Hg10 mi
9:56 AM89 °FPassing clouds.9 mph24%29.81 "Hg10 mi
8:56 AM87 °FPassing clouds.10 mph25%29.80 "Hg10 mi
7:56 AM84 °FPassing clouds.12 mph26%29.79 "Hg10 mi
6:56 AM83 °FClear.10 mph22%29.77 "Hg10 mi
5:56 AM83 °FClear.7 mph21%29.75 "Hg10 mi
4:56 AM81 °FClear.7 mph24%29.73 "Hg10 mi
3:56 AM83 °FClear.5 mph23%29.72 "Hg10 mi
2:56 AM85 °FClear.5 mph20%29.71 "Hg10 mi
1:56 AM84 °FClear.3 mph17%29.71 "Hg10 mi
12:56 AM86 °FClear.7 mph15%29.71 "Hg10 mi
11:56 PM
Mon, Aug 31
87 °FClear.6 mph14%29.70 "Hg10 mi
10:56 PM89 °FClear.6 mph13%29.70 "Hg10 mi
Weather by CustomWeather, © 2015

See weather overviewHow to use our weather pages